FW0217 Weather Reports


time (UTC)temp
C
wind
direction
speed
KPH
gust
KPH
rain 1hr
cm
rain 24hr
cm
rain mn
cm
humidity
%
barometer
mb
20260504185050 20 201 14.5 38.6 0.00 0.00 0.00 37 1007.9
20260504184622 20 218 16.1 38.6 0.00 0.00 0.00 35 1007.7
20260504184050 20 172 14.5 38.6 0.00 0.00 0.00 36 1008.0
20260504183550 20 266 17.7 45.1 0.00 0.00 0.00 34 1007.9
20260504183053 20 217 12.9 45.1 0.00 0.00 0.00 37 1008.1
20260504182551 20 260 12.9 30.6 0.00 0.00 0.00 36 1008.3
20260504182051 20 180 11.3 38.6 0.00 0.00 0.00 36 1008.1
20260504181557 20 229 20.9 38.6 0.00 0.00 0.00 35 1008.2
20260504181050 20 194 9.7 33.8 0.00 0.00 0.00 40 1008.1
20260504180550 20 189 16.1 32.2 0.00 0.00 0.00 34 1008.4
20260504180054 19 275 14.5 40.2 0.00 0.00 0.00 33 1008.2
20260504175550 20 237 19.3 40.2 0.00 0.00 0.00 36 1008.5
20260504175051 20 191 12.9 40.2 0.00 0.00 0.00 35 1008.3
20260504174556 20 249 11.3 24.1 0.00 0.00 0.00 35 1008.3
20260504174051 20 258 9.7 37.0 0.00 0.00 0.00 39 1008.2
20260504173551 19 290 16.1 37.0 0.00 0.00 0.00 39 1008.3
20260504173057 19 201 14.5 35.4 0.00 0.00 0.00 35 1008.2
20260504172550 19 270 16.1 35.4 0.00 0.00 0.00 36 1008.8
20260504172050 19 220 12.9 35.4 0.00 0.00 0.00 38 1008.3
20260504171608 19 247 19.3 35.4 0.00 0.00 0.00 37 1008.3
20260504171051 19 224 16.1 30.6 0.00 0.00 0.00 33 1008.5
20260504170550 19 238 16.1 37.0 0.00 0.00 0.00 39 1008.5
20260504160104 18 180 9.7 37.0 0.00 0.00 0.00 42 1009.5
20260504151050 16 276 14.5 33.8 0.00 0.00 0.00 45 1009.6
20260504150550 16 244 14.5 33.8 0.00 0.00 0.00 45 1009.6
20260504141050 15 259 9.7 30.6 0.00 0.00 0.00 44 1009.7
20260504140552 15 235 12.9 30.6 0.00 0.00 0.00 46 1009.8
20260504140113 15 245 8.0 35.4 0.00 0.00 0.00 48 1009.9
20260504130551 12 189 9.7 29.0 0.00 0.00 0.00 52 1010.2
20260504120110 8 237 9.7 25.7 0.00 0.00 0.00 62 1010.7
20260504110550 7 158 6.4 14.5 0.00 0.00 0.00 66 1010.4
20260504110106 7 219 4.8 14.5 0.00 0.00 0.00 65 1010.4
20260504100550 6 191 1.6 6.4 0.00 0.00 0.00 67 1010.5
20260504081551 7 251 4.8 16.1 0.00 0.00 0.00 62 1010.4
20260504081050 7 253 6.4 17.7 0.00 0.00 0.00 62 1010.4
20260504080552 7 235 9.7 19.3 0.00 0.00 0.00 62 1010.4
20260504060105 6 194 8.0 17.7 0.00 0.00 0.00 58 1010.5
20260504050551 6 246 6.4 14.5 0.00 0.00 0.00 58 1010.3
20260504045549 5 212 4.8 14.5 0.00 0.00 0.00 61 1010.4
20260504045052 5 228 6.4 19.3 0.00 0.00 0.00 61 1010.4
20260504044557 5 224 6.4 19.3 0.00 0.00 0.00 61 1010.6
20260504044050 5 237 4.8 14.5 0.00 0.00 0.00 63 1010.6
20260504043550 5 217 4.8 9.7 0.00 0.00 0.00 63 1010.6
20260504043110 4 217 3.2 11.3 0.00 0.00 0.00 64 1010.5
20260504042550 4 217 3.2 11.3 0.00 0.00 0.00 64 1010.5
20260504042050 4 224 4.8 9.7 0.00 0.00 0.00 65 1010.6
20260504041553 3 234 1.6 8.0 0.00 0.00 0.00 66 1010.4
20260504041050 3 197 1.6 6.4 0.00 0.00 0.00 68 1010.4
20260504040553 3 207 1.6 6.4 0.00 0.00 0.00 68 1010.4
20260504040054 3 0 0.0 4.8 0.00 0.00 0.00 69 1010.4
20260504035550 3 216 1.6 6.4 0.00 0.00 0.00 67 1010.4
20260504035050 3 212 3.2 9.7 0.00 0.00 0.00 67 1010.3
20260504034550 4 204 1.6 11.3 0.00 0.00 0.00 67 1010.2
20260504034052 4 260 4.8 11.3 0.00 0.00 0.00 63 1010.2
20260504033550 4 258 4.8 11.3 0.00 0.00 0.00 63 1010.2
20260504033104 3 228 1.6 12.9 0.00 0.00 0.00 66 1010.2
20260504032551 3 271 1.6 12.9 0.00 0.00 0.00 70 1010.2
20260504032052 2 245 0.0 4.8 0.00 0.00 0.00 74 1010.2
20260504031601 2 189 0.0 4.8 0.00 0.00 0.00 76 1010.2
20260504031052 2 0 0.0 4.8 0.00 0.00 0.00 79 1010.1
20260504030552 1 143 1.6 4.8 0.00 0.00 0.00 81 1010.1
20260504030055 1 0 0.0 3.2 0.00 0.00 0.00 80 1010.1
20260504025551 1 0 0.0 1.6 0.00 0.00 0.00 79 1010.2
20260504025050 1 0 0.0 1.6 0.00 0.00 0.00 79 1010.1
20260504024601 1 0 0.0 0.0 0.00 0.00 0.00 80 1010.1
20260504024052 1 0 0.0 0.0 0.00 0.00 0.00 80 1010.1
20260504023554 1 0 0.0 0.0 0.00 0.00 0.00 79 1010.1
20260504023056 1 0 0.0 0.0 0.00 0.00 0.00 78 1010.1
20260504022552 2 0 0.0 0.0 0.00 0.00 0.00 78 1010.2
20260504022051 2 0 0.0 0.0 0.00 0.00 0.00 78 1010.1
20260504021557 2 0 0.0 0.0 0.00 0.00 0.00 77 1010.2
20260504021052 2 0 0.0 0.0 0.00 0.00 0.00 75 1010.2
20260504020550 2 0 0.0 0.0 0.00 0.00 0.00 74 1010.2
20260504020052 2 0 0.0 0.0 0.00 0.00 0.00 73 1010.1
20260504015551 2 0 0.0 0.0 0.00 0.00 0.00 73 1010.1
20260504015051 3 0 0.0 0.0 0.00 0.00 0.00 74 1010.0
20260504014552 3 0 0.0 0.0 0.00 0.00 0.00 74 1009.9
20260504014050 3 0 0.0 3.2 0.00 0.00 0.00 71 1009.9
20260504013550 3 0 0.0 3.2 0.00 0.00 0.00 69 1009.9
20260504013106 3 109 0.0 3.2 0.00 0.00 0.00 69 1009.8
20260504012551 3 0 0.0 3.2 0.00 0.00 0.00 69 1009.8
20260504012053 4 0 0.0 1.6 0.00 0.00 0.00 64 1009.8
20260504011555 5 0 0.0 3.2 0.00 0.00 0.00 65 1009.7
20260504011052 5 0 0.0 3.2 0.00 0.00 0.00 62 1009.7
20260504010550 5 0 0.0 3.2 0.00 0.00 0.00 60 1009.6
20260504005551 6 0 0.0 4.8 0.00 0.00 0.00 57 1009.4
20260504005051 6 0 1.6 6.4 0.00 0.00 0.00 55 1009.3
20260504004622 6 0 1.6 11.3 0.00 0.00 0.00 53 1009.2
20260504004050 6 248 0.0 11.3 0.00 0.00 0.00 55 1009.1
20260504003552 6 281 1.6 11.3 0.00 0.00 0.00 52 1009.2
20260504003102 7 285 1.6 4.8 0.00 0.00 0.00 52 1009.1
20260504002552 7 260 1.6 11.3 0.00 0.00 0.00 51 1009.1
20260504002054 7 283 4.8 11.3 0.00 0.00 0.00 51 1009.0
20260504001607 7 261 1.6 9.7 0.00 0.00 0.00 50 1009.0
20260504001055 7 270 1.6 9.7 0.00 0.00 0.00 51 1009.0
20260504000550 7 258 3.2 9.7 0.00 0.00 0.00 50 1008.8
20260504000055 7 0 1.6 12.9 0.00 0.00 0.00 49 1008.8
20260503235550 7 278 3.2 12.9 0.00 0.00 0.00 49 1008.8
20260503235053 7 229 3.2 12.9 0.00 0.00 0.00 50 1008.8
20260503234556 7 256 4.8 12.9 0.00 0.00 0.00 49 1008.7
20260503234051 8 289 3.2 12.9 0.00 0.00 0.00 48 1008.7
20260503233551 8 281 4.8 27.4 0.00 0.00 0.00 47 1008.7
20260503233055 8 274 9.7 27.4 0.00 0.00 0.00 47 1008.7
20260503232550 8 291 11.3 25.7 0.00 0.00 0.00 46 1008.6
20260503232050 8 294 9.7 25.7 0.00 0.00 0.00 46 1008.5
20260503231559 8 303 9.7 25.7 0.00 0.00 0.00 46 1008.5
20260503231055 8 281 8.0 27.4 0.00 0.00 0.00 46 1008.4
20260503230551 8 262 11.3 27.4 0.00 0.00 0.00 47 1008.3
20260503230054 9 337 11.3 27.4 0.00 0.00 0.00 46 1008.5
20260503225550 9 263 4.8 20.9 0.00 0.00 0.00 50 1008.3
20260503225050 8 283 6.4 20.9 0.00 0.00 0.00 48 1008.2
20260503224558 8 305 4.8 24.1 0.00 0.00 0.00 48 1008.2
20260503224050 8 280 6.4 24.1 0.00 0.00 0.00 48 1008.2
20260503223550 8 301 3.2 20.9 0.00 0.00 0.00 49 1008.1
20260503223057 8 358 8.0 20.9 0.00 0.00 0.00 47 1008.1
20260503222550 8 303 6.4 20.9 0.00 0.00 0.00 47 1008.2
20260503222053 8 297 8.0 20.9 0.00 0.00 0.00 46 1008.2
20260503221555 8 320 8.0 22.5 0.00 0.00 0.00 47 1008.0
20260503221052 8 321 6.4 27.4 0.00 0.00 0.00 49 1008.0
20260503220551 9 297 8.0 30.6 0.00 0.00 0.00 47 1008.0
20260503215549 9 351 8.0 22.5 0.00 0.00 0.00 45 1008.0
20260503215051 9 249 6.4 16.1 0.00 0.00 0.00 46 1008.0
20260503214557 10 313 4.8 24.1 0.00 0.00 0.00 45 1007.9
20260503214050 10 225 8.0 27.4 0.00 0.00 0.00 45 1007.9
20260503213550 10 308 11.3 32.2 0.00 0.00 0.00 44 1007.9
20260503213055 10 12 9.7 32.2 0.00 0.00 0.00 43 1007.8
20260503212550 10 329 16.1 30.6 0.00 0.00 0.00 43 1007.8
20260503212050 9 282 16.1 27.4 0.00 0.00 0.00 43 1007.7
20260503211603 9 312 8.0 45.1 0.00 0.00 0.00 45 1007.7
20260503211053 9 287 12.9 45.1 0.00 0.00 0.00 43 1007.7
20260503210550 10 303 12.9 30.6 0.00 0.00 0.00 43 1007.7
20260503210054 10 321 11.3 38.6 0.00 0.00 0.00 44 1007.4
20260503205550 10 285 12.9 38.6 0.00 0.00 0.00 45 1007.4
20260503205052 10 291 16.1 38.6 0.00 0.00 0.00 45 1007.4
20260503204555 10 214 9.7 32.2 0.00 0.00 0.00 43 1007.4
20260503204051 11 272 12.9 35.4 0.00 0.00 0.00 42 1007.2
20260503203550 11 340 11.3 35.4 0.00 0.00 0.00 44 1007.2
20260503203053 11 295 12.9 29.0 0.00 0.00 0.00 42 1007.1
20260503202551 10 322 11.3 29.0 0.00 0.00 0.00 44 1007.2
20260503202050 10 194 8.0 41.8 0.00 0.00 0.00 48 1007.0
20260503201556 9 200 14.5 41.8 0.00 0.00 0.00 44 1007.1
20260503201050 9 296 11.3 33.8 0.00 0.00 0.00 46 1007.1
20260503200551 10 345 9.7 33.8 0.00 0.00 0.00 45 1007.1
20260503200053 10 233 9.7 27.4 0.00 0.00 0.00 47 1007.0
20260503195550 9 341 11.3 38.6 0.00 0.03 0.00 49 1007.1
20260503195050 9 310 17.7 38.6 0.00 0.03 0.00 46 1007.1
20260503194553 9 263 12.9 43.5 0.00 0.03 0.00 49 1007.1
20260503194050 9 271 12.9 43.5 0.00 0.03 0.00 47 1007.1
20260503193550 9 312 12.9 27.4 0.00 0.03 0.00 47 1007.0
20260503193056 9 26 14.5 27.4 0.00 0.03 0.00 46 1007.1
20260503192549 10 35 12.9 29.0 0.00 0.03 0.00 48 1006.9
20260503192050 10 247 11.3 29.0 0.00 0.03 0.00 46 1007.0
20260503191554 9 233 11.3 35.4 0.00 0.03 0.00 47 1007.0
20260503191051 9 299 11.3 35.4 0.00 0.03 0.00 46 1007.1
20260503190551 10 296 14.5 35.4 0.00 0.03 0.00 47 1007.2
20260503190055 10 360 12.9 40.2 0.00 0.03 0.00 45 1007.1
20260503185551 10 268 14.5 40.2 0.00 0.08 0.00 47 1007.1